Погода в Метелях

Россия / Республика Башкортостан     56°00′32″N   57°56′51″E
темп.,
°C
ветер,
м/с
пор.,
м/с
влажн.,
%
обл.,
%
осадки,
мм/ч
давл.,
гПа
погр.,
м
9 мая, вс
вс923:00+12зсз1172100 0.2 101613
02:00+11сз2278100 0.0 101618
05:00+10ссз1181100 0.0 101711
08:00+13ссв1271100 0.1 1017184
11:00+17всв224991 0.1 1017679
14:00+20св23369 0.0 10172294
17:00+17ссв465284 0.1 1017481
20:00+14зсз236680 0.2 101866
10 мая, пн
пн1023:00+12сз00678 0.2 101910
02:00+11св11725 0.0 102010
05:00+10в11725 0.0 102110
08:00+14юв13560 0.0 1022183
11:00+19вюв34430 0.0 1023916
14:00+22в243423 0.0 10222606
17:00+22вюв3329100 0.0 10222680
20:00+18ююв224537 0.0 102313
11 мая, вт
вт1123:00+14ююв225521 0.0 102418
02:00+12юв1157100 0.0 102510
05:00+11ююв1156100 0.0 102510
08:00+14ююв2354100 0.0 1026114
11:00+18ю2244100 0.0 1026485
14:00+20вюв114146 0.0 1027866
17:00+20ссв334879 0.0 1026345
20:00+16ссв356912 0.0 1028157
12 мая, ср
ср1223:00+12с38845 0.1 1029247
02:00+10с239135 0.0 103066
05:00+9с239431 0.0 103047
08:00+12с2375100 0.0 1031252
11:00+16ссв335715 0.0 1031714
14:00+20ссв22447 0.0 10301252
17:00+21ссв23405 0.0 10291559
20:00+18ссз235697 0.0 102939
13 мая, чт
чт1323:00+14с346654 0.0 102965
02:00+12с227360 0.0 103011
05:00+11ссз11775 0.0 103010
08:00+16с126443 0.0 1030201
11:00+20ссв22505 0.0 1029890
14:00+23ссв33425 0.0 10281572
17:00+24ссв343953 0.0 10271702
20:00+20с225556 0.0 102722